1st Responders/1st Detectors/Storm Spotters Weather Summary for Mason County, KY

Forecast Maps


Reg. NEXRAD Animation


National Fire Danger: Day 1 & 2 Map

Current NWS Watch/Warnings

SPC Convective Day 1 Outlook


Day 2 Outlook

(Click images to enlarge|Page will refresh every 5 minutes)
UK Ag. Weather Center Desktop Severe Weather Service[HERE]
Mason County, KY Hazardous Weather Outlook Webcast
(9 AM to 9 PM Mon-Fri)
[Fast]
[Dial-up]


UKAWC 1st Detectors/1st Responders Precision Weather Forecast For MASON County, Kentucky
(based on the NWS County Digital Forecast)

ISSUED AT 08:00 UTC ON SUNDAY SEP 15 2019
DAY SUNDAY
EDT 3HR 5A 6A 7A 8A 9A 10A 11A NOON 1P 2P 3P 4P 5P 6P 7P
MAX/MIN -- -- -- 54° -- -- -- -- -- -- -- -- -- -- 85°
TEMP 56° 54° 54° 54° 61° 67° 74° 77° 81° 83° 85° 85° 85° 85° 81°
SKY COVER 3% 4% 5% 6% 6% 4% 3% 2% 3% 5% 9% 12% 14% 13% 10%
Clouds
DEW PT 54° 52° 52° 54° 54° 56° 56° 54° 54° 54° 54° 52° 52° 54° 56°
RH 93% 96% 96% 96% 80% 68% 53% 45% 39% 36% 35% 32% 32% 35% 42%
POP 12HR -- -- -- 1% -- -- -- -- -- -- -- -- -- -- --
RAIN/SNOW (liq.equ) -- -- -- 0.00in -- -- -- -- -- 0.00in -- -- -- -- --
SNOWFALL -- -- -- 0in -- -- -- -- -- 0in -- -- -- -- --
WIND SPEED(MPH) 1 2 2 2 2 5 6 7 7 6 6 6 6 5 2
WIND Gust(MPH) 1 2 2 2 2 5 6 8 8 8 8 8 8 7 7
WIND DIR SE SE SE SE SE SE SE S S S S S S S S
DEW Mod Dew Mod Dew Mod Dew Mod Dew Lgt Dew -- -- -- -- -- -- -- -- -- --
HeatIndex 56 54 54 54 61 67 74 77 81 81 83 84 84 83 81
Rain Showers -- -- -- -- -- -- -- -- -- -- -- -- -- -- --
Thunder Storm -- -- -- -- -- -- -- -- -- -- -- -- -- -- --
WIND CHILL -- -- -- -- -- -- -- -- -- -- -- -- -- -- --
SPRAY COND
DRY COND
LIVESTOCK HEATSTRESS 56.11 54.11 54.11 54.11 60.76 65.56 70.07 71.49 73.55 74.48 75.63 75.20 75.20 75.63 73.92



DAY MONDAY TUESDAY WEDNESDAY THURSDAY FRIDAY SATURDAY
EDT 6HR 8P 9P 10P 11P MIDN 1A 2A 3A 4A 5A 6A 7A 8A 9A 10A 11A NOON 1P 2P 3P 4P 5P 8P 11P 2A 5A 8A 11A 2P 5P 8P 2A 8A 2P 8P 2A 8A 2P 8P 2A 8A 2P 8P 2A 8A 2P 8P
MAX/MIN -- -- -- -- -- -- -- -- -- -- -- -- 61° -- -- -- -- -- -- -- -- 88° -- -- -- -- 63° -- -- 85° -- -- 59° 85° -- -- 61° 85° -- -- 63° 85° -- -- 63° 88° --
TEMP 76° 74° 70° 70° 67° 67° 65° 63° 63° 63° 61° 61° 63° 67° 72° 77° 81° 83° 85° 86° 88° 88° 79° 72° 67° 65° 65° 74° 83° 83° 74° 65° 61° 83° 76° 67° 63° 85° 76° 67° 65° 85° 76° 67° 65° 86° 76°
SKY COVER 8% 17% 25% 34% 33% 33% 32% 33% 34% 35% 36% 38% 39% 36% 33% 30% 31% 32% 33% 33% 34% 34% 26% 31% 30% 46% 32% 36% 27% 21% 27% 16% 11% 8% 9% 9% 10% 14% 14% 19% 17% 33% 25% 26% 36% 43% 43%
Clouds
DEW PT 56° 56° 56° 56° 56° 54° 54° 54° 54° 54° 54° 54° 56° 58° 61° 63° 65° 67° 67° 67° 67° 67° 67° 67° 65° 65° 63° 65° 63° 63° 61° 58° 56° 58° 58° 58° 56° 61° 61° 58° 58° 63° 63° 61° 61° 63° 63°
RH 50% 55% 61% 61% 65% 65% 67% 72% 72% 75% 78% 78% 78% 72% 65% 61% 60% 56% 53% 51% 51% 52% 67% 84% 89% 99% 93% 70% 51% 49% 61% 75% 81% 42% 55% 70% 78% 44% 59% 73% 80% 48% 63% 81% 83% 44% 62%
POP 12HR 1% -- -- -- -- -- -- -- -- -- -- -- 9% -- -- -- -- -- -- -- -- -- 10% -- -- -- 5% -- -- -- 3% -- 0% -- 0% -- 0% -- 5% -- 10% -- 20% -- 10% -- 19%
RAIN/SNOW (liq.equ) 0.00in -- -- -- -- -- 0.00in -- -- -- -- -- 0.00in -- -- -- -- -- 0.00in -- -- -- 0.00in -- 0.00in -- 0.00in -- 0.00in -- 0.00in -- -- -- -- -- -- -- -- -- -- -- -- -- -- -- --
SNOWFALL 0in -- -- -- -- -- 0in -- -- -- -- -- 0in -- -- -- -- -- 0in -- -- -- 0in -- 0in -- 0in -- 0in -- 0in -- -- -- -- -- -- -- -- -- -- -- -- -- -- -- --
WIND SPEED(MPH) 2 2 2 2 2 2 2 2 2 2 2 2 2 2 5 6 6 7 7 7 7 7 6 6 6 6 6 7 7 7 6 6 5 6 5 5 2 6 2 5 2 6 1 2 1 7 1
WIND DIR S S S S S S S S S S SW SW SW SW W W W W W NW NW NW N N NE NE NE NE NE NE NE NE NE E NE SE SE S SE S S SW S SW S W SW
HeatIndex 76 74 70 70 67 67 65 63 63 63 61 61 63 67 72 77 83 86 88 89 91 91 79 72 67 65 65 74 84 85 74 65 61 83 76 67 63 85 76 67 65 85 76 67 65 87 76
Rain Showers -- -- -- -- -- -- -- -- -- -- -- -- -- -- -- -- -- -- -- -- -- -- -- -- -- -- -- -- -- -- -- -- -- -- -- -- -- -- -- -- -- Slight Chance -- -- -- Slight Chance --
Thunder Storm -- -- -- -- -- -- -- -- -- -- -- -- -- -- -- -- -- -- -- -- -- -- -- -- -- -- -- -- -- -- -- -- -- -- -- -- -- -- -- -- -- Slight Chance -- -- -- Slight Chance --
WIND CHILL -- -- -- -- -- -- -- -- -- -- -- -- -- -- -- -- -- -- -- -- -- -- -- -- -- -- -- -- -- -- -- -- -- -- -- -- -- -- -- -- -- -- -- -- -- -- --
SPRAY COND
DRY COND
LIVESTOCK HEATSTRESS 71.27 70.24 67.60 67.60 65.42 65.42 63.87 62.35 62.35 62.42 60.73 60.73 62.49 65.74 69.46 73.10 76.12 77.14 78.23 78.67 80.13 80.29 75.33 70.84 66.50 64.97 64.76 71.49 76.48 76.21 70.74 64.15 60.77 75.28 71.74 65.65 62.49 76.93 72.12 65.78 64.32 77.51 72.50 66.14 64.42 77.62 72.41

Click on individual weather variable above in left-hand column (ie., TEMP, RH, QPF 12HR) to view state forecast maps






NWS 48 Hr. Forecast Maps,

Regional Hourly Observations For MASON County, Kentucky
Issued at 400 AM EDT SUN SEP 15 2019
...CENTRAL KENTUCKY...
  
CITY           SKY/WX    TMP DP  RH WIND       PRES   REMARKS
MT STERLING*     N/A     54  52  94 SE3       30.25S                  
FLEMING/MASON*   N/A     55  55  99 CALM      30.24S                  
DANVILLE*        N/A     55  52  88 CALM      30.24S                  
LEXINGTON        N/A     60  51  72 E5        30.22F                  
FRANKFORT        N/A     56  54  93 CALM      30.20F                  
LOUISVILLE       N/A     68  53  58 SE3       30.19F                  
LEBANON*         N/A     64  54  68 E6        30.21F                  
GLASGOW*         N/A     61  53  74 CALM      30.19F                  
BOWLING GREEN    N/A     64  56  75 CALM      30.18F                  


Current NOWCAST not available:
Nowcasts are not issued routinely during fair weather. Only when
precipitation or other significant weather is occuring in this county will these
forecasts be issued. Currently, there is no short term forecast in effect.


Fire Weather Forecast For MASON County, KY
Provided by the National Weather Service:

Issued at: Sun Sep 15 04:05:01 EDT 2019

CLOUD COVER                    MClear       MClear        PCldy
PRECIP TYPE                      None         None         None
CHANCE PRECIP (%)                   0            0            0
TEMP (24H TREND)              86 (+4)      61 (+4)           88
RH % (24H TREND)              32 (-5)     79 (-17)           50
20FTWND-AM(MPH)               Lgt/Var                   Lgt/Var
20FTWND-PM(MPH)               Lgt/Var      Lgt/Var         W  5
PRECIP AMOUNT                    0.00         0.00         0.00
PRECIP DURATION                                                
MIXING HGT(FT-AGL)               5700                      7070
TRANSPORT WND (MPH)              S  7                      W 13
LAL                                 1            1            1
HAINES INDEX                        4            5            4

REMARKS...None.

.FORECAST FOR DAYS 3 THROUGH 7...
.MONDAY NIGHT...Partly cloudy. Lows in the mid 60s. Northwest winds around
5 mph. 
.TUESDAY...Mostly sunny. Highs in the mid 80s. Northeast winds around
5 mph. 
.WEDNESDAY...Mostly clear. Lows around 60. Highs in the mid 80s. East
winds around 5 mph. 
.THURSDAY...Mostly clear. Lows in the lower 60s. Highs in the upper 80s.
South winds around 5 mph. 
.FRIDAY...Partly cloudy. Lows in the lower 60s. Highs in the upper 80s.
Southwest winds around 5 mph. 
.SATURDAY...Partly cloudy. Lows in the lower 60s. Highs in the upper 80s.
Southwest winds around 5 mph. 

SPC's Fire Weather Web Tool (Excellent!), SPC's Fire Weather Outlooks, NWS Fire Weather WEB, Fire Danger Class Map,
Keetch-Byram Drought Index, ROMAN Web, Haines Index ,
WFAS's 10-hr Dead Fuel Moist., WFAS's 100-hr Dead Fuel Moist., Probablity of Ignition, Visual blackness Map, Palmer Drought Index, HPC's Rainfall Forecast Maps


Hazardous Weather Outlook For MASON County, Kentucky
451 AM EDT Sat Sep 14 2019

 DAY ONE  Today and tonight.

No hazardous weather is expected at this time.

 DAYS TWO THROUGH SEVEN  Sunday through Friday.

The probability for widespread hazardous weather is low.

 SPOTTER INFORMATION STATEMENT  

Spotter activation is not expected at this time.

Latest MASON County, Kentucky Watches, Warnings and Advisories.
Additional Drought Info.: UKAWC Drought Page, Kentucky Drought Watch


7-Day Forecast For MASON County, KY

TODAY
Sunny. Highs in the mid 80s. South winds around 5 mph.

TONIGHT
Mostly clear in the evening, then becoming partly cloudy. Lows in the lower 60s. South winds around 5 mph.

MONDAY
Partly cloudy. Highs in the upper 80s. Southwest winds around 5 mph, becoming west in the afternoon.

MONDAY NIGHT
Mostly clear in the evening, then becoming partly cloudy. Lows in the mid 60s. North winds 5 to 10 mph.

TUESDAY
Partly cloudy in the morning, then clearing. Highs in the mid 80s. Northeast winds 5 to 10 mph.

TUESDAY NIGHT
Mostly clear. Lows around 60.

WEDNESDAY
Mostly sunny. Highs in the mid 80s.

WEDNESDAY NIGHT
Mostly clear. Lows in the lower 60s.

THURSDAY
Mostly sunny. Highs in the upper 80s.

THURSDAY NIGHT
Mostly clear. Lows in the lower 60s.

FRIDAY
Partly cloudy. Highs in the upper 80s.

FRIDAY NIGHT
Mostly clear. Lows in the lower 60s.

SATURDAY
Mostly sunny in the morning, then becoming partly cloudy. Highs in the upper 80s.

Ag Weather Center, Department of Biosystems & Agricultural Engineering, University of Kentucky